Precipitable_Water
0.22 0.16 0.14 0.13 0.12 0.12 0.13 0.15 0.19 0.28 0.39 0.40 0.41 0.40 0.45 0.48 0.58 0.72 0.75 0.86 0.94 0.72 0.67 0.73 0.77 0.82 0.89 1.00 1.14 1.30 1.42 1.47 1.51 1.42 1.41 1.42 1.37 1.35 1.27 1.19 1.21 1.24 1.34 1.53 1.56 1.55 1.57 1.60 1.56 1.54 1.53 1.56 1.56 1.55 1.58 1.61 1.61 1.61 1.59 1.63 1.66 1.80 1.86 1.82 1.77 1.75 1.72 1.70 1.75 1.78 1.73 1.64 1.66 1.65 1.66 1.64 1.64 1.60 1.60 1.63 1.64 1.61 1.56 1.55 1.55 1.54
0.20 0.15 0.14 0.15 0.15 0.14 0.14 0.16 0.20 0.27 0.32 0.30 0.35 0.39 0.38 0.42 0.44 0.68 0.72 0.87 0.95 0.69 0.63 0.77 0.77 0.79 0.91 1.02 1.16 1.32 1.39 1.38 1.46 1.40 1.41 1.39 1.38 1.36 1.27 1.22 1.21 1.30 1.51 1.54 1.52 1.56 1.58 1.53 1.53 1.48 1.46 1.52 1.45 1.48 1.53 1.56 1.58 1.59 1.60 1.60 1.67 1.74 1.75 1.76 1.72 1.68 1.66 1.69 1.67 1.62 1.60 1.59 1.56 1.54 1.50 1.44 1.47 1.48 1.54 1.59 1.62 1.59 1.54 1.54 1.55 1.56
0.18 0.16 0.17 0.18 0.18 0.16 0.15 0.16 0.21 0.26 0.29 0.31 0.30 0.39 0.37 0.42 0.56 0.72 0.80 0.87 0.87 0.75 0.62 0.75 0.70 0.75 0.91 1.00 1.19 1.28 1.34 1.39 1.44 1.46 1.44 1.41 1.38 1.34 1.31 1.25 1.24 1.34 1.45 1.52 1.49 1.51 1.51 1.50 1.49 1.44 1.42 1.49 1.49 1.47 1.49 1.58 1.58 1.56 1.55 1.57 1.63 1.65 1.64 1.68 1.68 1.61 1.56 1.60 1.60 1.56 1.55 1.54 1.47 1.53 1.48 1.42 1.43 1.49 1.52 1.57 1.60 1.58 1.54 1.54 1.55 1.57
0.16 0.19 0.22 0.22 0.22 0.19 0.17 0.18 0.20 0.25 0.29 0.25 0.29 0.27 0.30 0.44 0.43 0.41 0.68 0.78 0.81 0.75 0.64 0.72 0.67 0.74 0.92 1.03 1.13 1.28 1.31 1.37 1.48 1.47 1.44 1.46 1.37 1.34 1.32 1.26 1.25 1.34 1.43 1.43 1.44 1.42 1.46 1.49 1.47 1.42 1.38 1.45 1.48 1.46 1.47 1.54 1.54 1.53 1.52 1.52 1.55 1.56 1.56 1.57 1.61 1.57 1.54 1.53 1.52 1.52 1.50 1.51 1.46 1.35 1.37 1.39 1.45 1.48 1.50 1.48 1.54 1.54 1.54 1.55 1.55 1.56
0.19 0.21 0.23 0.23 0.23 0.22 0.20 0.20 0.20 0.21 0.21 0.23 0.25 0.27 0.31 0.37 0.45 0.44 0.53 0.71 0.80 0.82 0.81 0.73 0.64 0.67 0.82 0.85 0.99 1.17 1.31 1.37 1.41 1.40 1.42 1.45 1.43 1.44 1.42 1.33 1.34 1.37 1.41 1.37 1.39 1.40 1.42 1.43 1.42 1.40 1.39 1.46 1.44 1.43 1.43 1.48 1.51 1.49 1.46 1.46 1.48 1.50 1.49 1.50 1.51 1.50 1.48 1.46 1.42 1.43 1.45 1.45 1.37 1.33 1.26 1.28 1.32 1.38 1.38 1.40 1.44 1.45 1.51 1.54 1.54 1.53
0.21 0.23 0.26 0.25 0.26 0.26 0.26 0.24 0.24 0.22 0.21 0.22 0.25 0.26 0.29 0.35 0.39 0.47 0.59 0.62 0.59 0.56 0.72 0.66 0.45 0.49 0.73 0.84 0.92 1.07 1.18 1.20 1.35 1.36 1.36 1.36 1.37 1.36 1.31 1.32 1.40 1.47 1.46 1.38 1.36 1.36 1.40 1.45 1.46 1.42 1.39 1.39 1.43 1.41 1.43 1.49 1.52 1.49 1.45 1.44 1.46 1.47 1.48 1.47 1.48 1.45 1.41 1.33 1.27 1.24 1.20 1.13 1.10 1.04 1.07 1.11 1.16 1.20 1.21 1.27 1.40 1.44 1.48 1.49 1.49 1.50
0.21 0.24 0.26 0.25 0.26 0.29 0.30 0.29 0.30 0.28 0.27 0.25 0.30 0.36 0.35 0.38 0.42 0.46 0.53 0.60 0.49 0.40 0.62 0.77 0.44 0.39 0.67 0.74 0.88 1.01 1.04 1.12 1.23 1.26 1.30 1.30 1.30 1.31 1.33 1.36 1.38 1.43 1.44 1.43 1.41 1.40 1.38 1.43 1.45 1.41 1.36 1.38 1.39 1.41 1.45 1.48 1.52 1.51 1.45 1.42 1.41 1.42 1.44 1.47 1.47 1.46 1.40 1.31 1.27 1.20 1.13 1.09 1.03 0.99 1.06 1.17 1.22 1.22 1.30 1.35 1.33 1.38 1.45 1.47 1.45 1.45
0.23 0.24 0.25 0.26 0.27 0.27 0.30 0.29 0.32 0.29 0.26 0.26 0.39 0.50 0.50 0.50 0.50 0.56 0.59 0.59 0.58 0.72 0.72 0.71 0.63 0.45 0.46 0.67 0.86 1.00 1.01 1.05 1.12 1.18 1.23 1.28 1.28 1.28 1.32 1.37 1.37 1.42 1.44 1.39 1.36 1.38 1.40 1.44 1.43 1.37 1.37 1.40 1.40 1.45 1.43 1.43 1.49 1.48 1.43 1.41 1.37 1.38 1.42 1.45 1.47 1.44 1.41 1.31 1.26 1.22 1.19 1.18 1.13 1.11 1.09 1.18 1.25 1.33 1.33 1.28 1.29 1.35 1.41 1.45 1.45 1.44
0.24 0.23 0.23 0.24 0.25 0.24 0.25 0.28 0.32 0.32 0.27 0.29 0.52 0.56 0.52 0.54 0.63 0.64 0.62 0.63 0.66 0.56 0.45 0.57 0.68 0.46 0.44 0.65 0.87 0.95 0.91 0.98 1.02 1.08 1.16 1.25 1.29 1.30 1.30 1.33 1.35 1.41 1.43 1.39 1.33 1.36 1.39 1.42 1.45 1.44 1.38 1.43 1.47 1.45 1.40 1.38 1.44 1.47 1.46 1.43 1.39 1.34 1.37 1.42 1.45 1.43 1.40 1.35 1.28 1.22 1.17 1.11 1.16 1.18 1.19 1.24 1.27 1.23 1.26 1.22 1.27 1.30 1.35 1.39 1.41 1.42
0.26 0.25 0.26 0.26 0.24 0.23 0.25 0.29 0.30 0.31 0.33 0.49 0.59 0.62 0.61 0.68 0.68 0.70 0.64 0.62 0.60 0.48 0.37 0.47 0.58 0.40 0.40 0.62 0.75 0.89 0.88 0.90 0.98 1.06 1.12 1.19 1.25 1.30 1.31 1.34 1.38 1.40 1.42 1.41 1.38 1.40 1.43 1.46 1.50 1.50 1.47 1.46 1.47 1.48 1.45 1.42 1.43 1.44 1.45 1.41 1.39 1.33 1.32 1.36 1.41 1.44 1.42 1.39 1.35 1.25 1.19 1.12 1.09 1.11 1.13 1.15 1.11 1.13 1.19 1.17 1.21 1.25 1.28 1.30 1.33 1.36
0.28 0.31 0.30 0.26 0.24 0.25 0.25 0.26 0.28 0.29 0.40 0.60 0.58 0.47 0.52 0.56 0.63 0.65 0.65 0.61 0.51 0.35 0.40 0.50 0.57 0.51 0.36 0.54 0.70 0.74 0.80 0.89 0.97 1.05 1.13 1.19 1.23 1.29 1.35 1.37 1.38 1.36 1.37 1.38 1.39 1.41 1.43 1.48 1.52 1.54 1.45 1.44 1.49 1.50 1.47 1.42 1.39 1.42 1.40 1.39 1.35 1.35 1.35 1.34 1.35 1.39 1.39 1.43 1.40 1.34 1.29 1.23 1.16 1.13 1.12 1.08 1.07 1.11 1.13 1.13 1.18 1.21 1.23 1.27 1.28 1.30
0.28 0.29 0.27 0.27 0.30 0.27 0.26 0.25 0.33 0.47 0.52 0.47 0.39 0.41 0.44 0.48 0.56 0.55 0.54 0.57 0.34 0.29 0.44 0.57 0.54 0.58 0.35 0.49 0.72 0.87 0.99 1.04 1.02 0.99 1.03 1.09 1.16 1.20 1.26 1.33 1.38 1.38 1.37 1.37 1.35 1.36 1.39 1.41 1.47 1.53 1.46 1.43 1.46 1.48 1.45 1.41 1.39 1.38 1.39 1.38 1.33 1.34 1.35 1.34 1.33 1.36 1.38 1.40 1.41 1.41 1.40 1.34 1.31 1.26 1.19 1.13 1.09 1.10 1.09 1.11 1.14 1.20 1.22 1.22 1.26 1.28
0.25 0.26 0.30 0.29 0.36 0.27 0.24 0.22 0.29 0.41 0.41 0.38 0.36 0.36 0.26 0.36 0.34 0.29 0.38 0.27 0.29 0.25 0.40 0.55 0.58 0.49 0.46 0.54 0.71 0.88 0.96 1.01 1.08 1.10 1.08 1.10 1.14 1.19 1.25 1.31 1.37 1.41 1.39 1.34 1.31 1.33 1.32 1.32 1.36 1.42 1.46 1.44 1.42 1.42 1.42 1.40 1.38 1.36 1.37 1.37 1.31 1.29 1.33 1.33 1.32 1.31 1.35 1.37 1.38 1.39 1.41 1.41 1.41 1.36 1.29 1.24 1.18 1.18 1.14 1.15 1.15 1.16 1.14 1.19 1.18 1.20
0.24 0.28 0.29 0.29 0.28 0.29 0.26 0.21 0.20 0.20 0.27 0.33 0.23 0.27 0.22 0.21 0.23 0.19 0.27 0.31 0.28 0.33 0.53 0.50 0.64 0.44 0.52 0.63 0.89 0.91 1.05 1.13 1.14 1.17 1.19 1.18 1.18 1.19 1.23 1.32 1.38 1.41 1.41 1.38 1.35 1.32 1.30 1.30 1.33 1.38 1.45 1.45 1.42 1.43 1.44 1.43 1.38 1.35 1.33 1.33 1.30 1.30 1.32 1.32 1.31 1.30 1.31 1.35 1.38 1.40 1.38 1.40 1.43 1.40 1.38 1.35 1.27 1.25 1.22 1.22 1.18 1.17 1.15 1.14 1.14 1.16
0.19 0.20 0.26 0.29 0.25 0.31 0.28 0.25 0.23 0.22 0.20 0.26 0.29 0.26 0.23 0.24 0.22 0.18 0.23 0.19 0.22 0.25 0.43 0.63 0.45 0.41 0.38 0.56 0.86 0.92 1.03 1.15 1.19 1.17 1.22 1.25 1.27 1.28 1.28 1.30 1.34 1.39 1.41 1.42 1.38 1.35 1.32 1.32 1.34 1.35 1.41 1.46 1.45 1.43 1.45 1.45 1.42 1.37 1.31 1.30 1.27 1.26 1.31 1.31 1.29 1.30 1.29 1.32 1.37 1.39 1.40 1.37 1.41 1.43 1.44 1.44 1.40 1.33 1.28 1.27 1.22 1.20 1.21 1.17 1.15 1.17
0.24 0.25 0.33 0.37 0.36 0.35 0.31 0.32 0.30 0.26 0.23 0.23 0.26 0.27 0.24 0.23 0.29 0.18 0.22 0.24 0.24 0.27 0.29 0.40 0.32 0.47 0.45 0.74 0.84 0.94 0.99 1.08 1.19 1.18 1.20 1.20 1.26 1.30 1.28 1.26 1.30 1.36 1.39 1.40 1.39 1.38 1.36 1.36 1.38 1.38 1.39 1.46 1.49 1.45 1.46 1.46 1.45 1.39 1.32 1.30 1.28 1.23 1.26 1.30 1.30 1.29 1.30 1.32 1.35 1.37 1.37 1.38 1.39 1.42 1.46 1.46 1.46 1.43 1.41 1.35 1.29 1.23 1.22 1.24 1.23 1.23
0.27 0.25 0.35 0.37 0.40 0.37 0.37 0.38 0.34 0.31 0.19 0.23 0.22 0.20 0.24 0.28 0.24 0.22 0.25 0.31 0.32 0.25 0.20 0.40 0.33 0.40 0.57 0.64 0.75 0.84 0.90 1.00 1.12 1.16 1.19 1.21 1.24 1.26 1.26 1.28 1.28 1.32 1.39 1.42 1.40 1.38 1.36 1.37 1.37 1.38 1.37 1.42 1.50 1.49 1.44 1.45 1.47 1.43 1.38 1.31 1.27 1.25 1.25 1.26 1.29 1.30 1.31 1.34 1.34 1.35 1.37 1.41 1.41 1.39 1.38 1.40 1.43 1.46 1.47 1.45 1.41 1.35 1.33 1.35 1.33 1.28
0.25 0.27 0.34 0.34 0.31 0.37 0.41 0.39 0.38 0.37 0.33 0.27 0.22 0.27 0.31 0.31 0.28 0.21 0.17 0.23 0.21 0.16 0.17 0.26 0.22 0.26 0.31 0.30 0.73 0.76 0.78 0.89 1.02 1.08 1.16 1.22 1.25 1.22 1.26 1.31 1.32 1.32 1.37 1.44 1.45 1.44 1.41 1.39 1.38 1.37 1.37 1.39 1.46 1.50 1.50 1.48 1.51 1.51 1.47 1.39 1.29 1.25 1.18 1.21 1.25 1.27 1.29 1.30 1.32 1.35 1.37 1.40 1.44 1.44 1.41 1.42 1.43 1.47 1.49 1.49 1.49 1.48 1.46 1.42 1.42 1.37
0.31 0.24 0.30 0.34 0.34 0.37 0.41 0.37 0.33 0.39 0.42 0.32 0.27 0.40 0.24 0.20 0.18 0.22 0.20 0.16 0.16 0.15 0.16 0.21 0.31 0.30 0.31 0.33 0.54 0.60 0.68 0.78 0.90 1.04 1.07 1.12 1.20 1.23 1.27 1.33 1.36 1.39 1.41 1.43 1.44 1.42 1.39 1.38 1.38 1.37 1.35 1.37 1.42 1.52 1.55 1.56 1.55 1.54 1.52 1.50 1.41 1.27 1.23 1.20 1.21 1.24 1.29 1.32 1.33 1.35 1.37 1.39 1.43 1.46 1.45 1.44 1.46 1.47 1.46 1.47 1.49 1.49 1.52 1.55 1.53 1.45
0.34 0.26 0.28 0.35 0.35 0.36 0.37 0.34 0.26 0.31 0.39 0.42 0.43 0.36 0.38 0.27 0.24 0.21 0.23 0.24 0.21 0.17 0.17 0.17 0.27 0.22 0.44 0.47 0.58 0.62 0.74 0.82 0.87 0.91 0.95 1.06 1.16 1.24 1.28 1.30 1.34 1.36 1.39 1.40 1.44 1.43 1.38 1.37 1.39 1.39 1.38 1.38 1.38 1.44 1.54 1.58 1.58 1.53 1.53 1.52 1.49 1.42 1.33 1.26 1.21 1.20 1.20 1.28 1.32 1.34 1.38 1.41 1.43 1.46 1.46 1.46 1.46 1.45 1.45 1.47 1.50 1.51 1.52 1.54 1.57 1.53
0.33 0.34 0.24 0.32 0.38 0.35 0.29 0.35 0.31 0.32 0.29 0.32 0.32 0.31 0.33 0.32 0.38 0.31 0.33 0.29 0.24 0.21 0.20 0.20 0.17 0.23 0.42 0.63 0.61 0.66 0.74 0.83 0.86 0.87 0.93 0.97 1.06 1.19 1.28 1.32 1.34 1.38 1.40 1.42 1.42 1.43 1.42 1.39 1.40 1.44 1.45 1.47 1.49 1.50 1.55 1.59 1.56 1.55 1.56 1.52 1.53 1.46 1.37 1.28 1.23 1.19 1.17 1.24 1.29 1.32 1.32 1.34 1.38 1.41 1.46 1.48 1.49 1.48 1.49 1.50 1.52 1.53 1.56 1.59 1.56 1.57
0.34 0.33 0.28 0.33 0.31 0.29 0.32 0.41 0.42 0.40 0.40 0.36 0.33 0.31 0.34 0.30 0.27 0.21 0.21 0.37 0.35 0.25 0.22 0.21 0.19 0.27 0.46 0.71 0.73 0.72 0.81 0.85 0.91 0.93 0.94 0.99 1.04 1.11 1.19 1.29 1.36 1.39 1.45 1.46 1.47 1.48 1.46 1.44 1.44 1.47 1.51 1.53 1.53 1.52 1.51 1.57 1.61 1.58 1.54 1.53 1.53 1.52 1.45 1.35 1.28 1.21 1.17 1.19 1.23 1.27 1.30 1.32 1.36 1.39 1.43 1.44 1.47 1.47 1.49 1.52 1.54 1.57 1.58 1.55 1.57 1.59
0.37 0.36 0.32 0.29 0.31 0.34 0.38 0.46 0.50 0.50 0.47 0.43 0.41 0.36 0.42 0.38 0.32 0.25 0.19 0.26 0.33 0.34 0.36 0.35 0.28 0.27 0.63 0.78 0.81 0.85 0.88 0.91 0.94 0.98 0.95 1.00 1.06 1.12 1.19 1.26 1.34 1.42 1.45 1.50 1.51 1.54 1.54 1.52 1.51 1.53 1.57 1.61 1.60 1.57 1.56 1.57 1.60 1.60 1.57 1.56 1.55 1.51 1.48 1.45 1.38 1.32 1.25 1.20 1.17 1.21 1.28 1.32 1.33 1.35 1.36 1.38 1.41 1.42 1.46 1.51 1.56 1.61 1.57 1.55 1.56 1.59
0.44 0.32 0.29 0.31 0.36 0.40 0.44 0.49 0.49 0.49 0.44 0.40 0.42 0.44 0.43 0.36 0.38 0.33 0.30 0.34 0.28 0.31 0.28 0.31 0.25 0.33 0.62 0.87 0.90 0.93 0.95 0.96 0.97 0.98 0.96 1.00 1.06 1.11 1.14 1.21 1.27 1.35 1.46 1.53 1.56 1.59 1.61 1.60 1.59 1.53 1.50 1.56 1.65 1.67 1.68 1.63 1.62 1.64 1.62 1.60 1.58 1.53 1.52 1.51 1.45 1.40 1.31 1.23 1.18 1.19 1.23 1.27 1.31 1.32 1.32 1.31 1.35 1.37 1.42 1.46 1.52 1.59 1.58 1.58 1.59 1.56
0.29 0.36 0.30 0.27 0.28 0.30 0.34 0.39 0.40 0.43 0.42 0.38 0.36 0.40 0.44 0.45 0.45 0.44 0.42 0.44 0.29 0.31 0.30 0.26 0.20 0.27 0.56 0.83 0.92 0.93 0.93 0.92 0.93 0.98 1.00 0.94 0.99 1.04 1.10 1.19 1.27 1.32 1.41 1.49 1.53 1.57 1.58 1.57 1.55 1.55 1.57 1.54 1.55 1.59 1.67 1.71 1.71 1.65 1.64 1.64 1.61 1.58 1.58 1.56 1.53 1.45 1.38 1.31 1.22 1.18 1.18 1.20 1.26 1.27 1.28 1.28 1.31 1.33 1.37 1.40 1.44 1.51 1.54 1.56 1.55 1.57
0.33 0.33 0.30 0.23 0.21 0.20 0.20 0.21 0.23 0.28 0.33 0.39 0.43 0.41 0.44 0.42 0.42 0.38 0.30 0.34 0.26 0.31 0.34 0.29 0.25 0.35 0.54 0.70 0.77 0.84 0.88 0.87 0.91 0.92 0.96 1.01 1.00 1.03 1.07 1.14 1.22 1.31 1.37 1.45 1.50 1.51 1.49 1.52 1.55 1.59 1.62 1.63 1.61 1.53 1.50 1.56 1.68 1.73 1.69 1.67 1.67 1.64 1.62 1.59 1.58 1.52 1.44 1.38 1.28 1.21 1.15 1.16 1.19 1.20 1.23 1.26 1.29 1.31 1.34 1.36 1.38 1.42 1.49 1.53 1.52 1.54
0.36 0.37 0.33 0.30 0.28 0.25 0.27 0.30 0.37 0.39 0.40 0.35 0.38 0.41 0.41 0.46 0.48 0.44 0.42 0.34 0.28 0.33 0.32 0.37 0.37 0.38 0.44 0.53 0.60 0.71 0.78 0.76 0.79 0.84 0.86 0.90 0.97 1.05 1.11 1.13 1.19 1.25 1.29 1.35 1.45 1.51 1.53 1.49 1.49 1.56 1.63 1.66 1.67 1.64 1.56 1.49 1.54 1.62 1.67 1.70 1.71 1.70 1.67 1.65 1.61 1.57 1.51 1.44 1.35 1.26 1.19 1.16 1.15 1.16 1.17 1.21 1.25 1.30 1.32 1.33 1.34 1.37 1.39 1.47 1.49 1.49
0.38 0.32 0.34 0.33 0.30 0.32 0.34 0.35 0.39 0.41 0.37 0.41 0.40 0.40 0.45 0.45 0.48 0.43 0.37 0.33 0.44 0.36 0.27 0.37 0.45 0.40 0.42 0.50 0.58 0.63 0.69 0.74 0.77 0.80 0.83 0.86 0.92 0.99 1.06 1.12 1.17 1.24 1.28 1.31 1.34 1.38 1.41 1.44 1.49 1.54 1.58 1.62 1.63 1.66 1.69 1.65 1.59 1.59 1.62 1.64 1.71 1.73 1.71 1.70 1.65 1.60 1.56 1.51 1.42 1.32 1.24 1.19 1.19 1.19 1.18 1.19 1.22 1.27 1.30 1.31 1.32 1.33 1.37 1.42 1.42 1.43
0.35 0.30 0.36 0.34 0.33 0.36 0.37 0.37 0.40 0.41 0.43 0.43 0.44 0.44 0.43 0.48 0.48 0.43 0.43 0.48 0.48 0.38 0.31 0.43 0.49 0.45 0.49 0.55 0.63 0.67 0.71 0.73 0.76 0.78 0.84 0.88 0.95 1.03 1.08 1.09 1.11 1.15 1.22 1.26 1.30 1.34 1.38 1.40 1.46 1.53 1.58 1.62 1.65 1.68 1.70 1.71 1.65 1.61 1.62 1.66 1.69 1.70 1.72 1.75 1.70 1.64 1.60 1.56 1.49 1.42 1.35 1.27 1.24 1.25 1.25 1.23 1.20 1.20 1.23 1.27 1.29 1.32 1.34 1.37 1.39 1.41
0.38 0.35 0.38 0.37 0.34 0.35 0.37 0.39 0.41 0.39 0.42 0.44 0.45 0.46 0.47 0.47 0.47 0.49 0.50 0.54 0.52 0.47 0.51 0.51 0.52 0.51 0.58 0.64 0.69 0.75 0.82 0.83 0.83 0.87 0.88 0.89 0.92 1.00 1.06 1.08 1.10 1.13 1.18 1.23 1.28 1.33 1.38 1.43 1.47 1.52 1.59 1.65 1.67 1.69 1.73 1.75 1.72 1.66 1.60 1.58 1.65 1.69 1.71 1.72 1.70 1.68 1.66 1.61 1.59 1.59 1.54 1.44 1.32 1.26 1.26 1.25 1.21 1.18 1.19 1.21 1.24 1.27 1.29 1.31 1.34 1.37
0.37 0.35 0.43 0.41 0.34 0.34 0.38 0.42 0.42 0.41 0.39 0.37 0.45 0.48 0.49 0.50 0.51 0.54 0.54 0.56 0.58 0.57 0.58 0.59 0.57 0.52 0.65 0.75 0.77 0.84 0.86 0.88 0.85 0.80 0.83 0.89 0.94 0.99 1.02 1.06 1.10 1.13 1.18 1.25 1.30 1.35 1.41 1.46 1.49 1.54 1.58 1.63 1.69 1.74 1.77 1.79 1.80 1.78 1.70 1.63 1.63 1.66 1.70 1.72 1.68 1.67 1.65 1.62 1.61 1.61 1.62 1.60 1.53 1.39 1.27 1.25 1.25 1.25 1.23 1.22 1.24 1.25 1.25 1.27 1.29 1.30
0.40 0.38 0.46 0.41 0.32 0.30 0.36 0.36 0.38 0.40 0.39 0.35 0.38 0.44 0.44 0.45 0.44 0.49 0.50 0.59 0.55 0.51 0.56 0.58 0.52 0.51 0.66 0.81 0.86 0.87 0.87 0.83 0.78 0.80 0.83 0.89 0.94 0.99 1.02 1.05 1.08 1.13 1.19 1.24 1.30 1.36 1.41 1.46 1.51 1.55 1.58 1.64 1.71 1.76 1.79 1.79 1.81 1.82 1.78 1.70 1.65 1.69 1.73 1.69 1.67 1.67 1.68 1.71 1.69 1.67 1.59 1.50 1.51 1.50 1.42 1.33 1.27 1.27 1.27 1.28 1.27 1.25 1.25 1.24 1.23 1.26
0.40 0.38 0.35 0.35 0.29 0.28 0.33 0.37 0.36 0.37 0.33 0.27 0.34 0.36 0.39 0.44 0.47 0.53 0.60 0.66 0.65 0.67 0.58 0.51 0.53 0.67 0.73 0.83 0.78 0.82 0.84 0.84 0.84 0.86 0.87 0.91 0.97 1.00 1.03 1.07 1.13 1.18 1.23 1.28 1.31 1.35 1.40 1.45 1.52 1.59 1.64 1.69 1.72 1.75 1.81 1.84 1.81 1.80 1.85 1.80 1.74 1.76 1.73 1.71 1.69 1.69 1.71 1.78 1.80 1.80 1.77 1.67 1.57 1.48 1.41 1.41 1.36 1.33 1.32 1.30 1.29 1.28 1.28 1.24 1.25 1.28
0.42 0.37 0.34 0.38 0.27 0.28 0.33 0.35 0.37 0.31 0.20 0.21 0.38 0.46 0.45 0.43 0.47 0.45 0.49 0.57 0.69 0.73 0.68 0.72 0.71 0.79 0.82 0.81 0.79 0.80 0.83 0.87 0.93 1.00 1.04 1.00 0.98 1.02 1.08 1.15 1.20 1.23 1.29 1.35 1.38 1.40 1.43 1.49 1.54 1.62 1.70 1.75 1.81 1.84 1.88 1.91 1.87 1.89 1.95 1.95 1.90 1.81 1.76 1.71 1.69 1.67 1.68 1.73 1.76 1.78 1.79 1.78 1.71 1.57 1.50 1.40 1.38 1.37 1.34 1.31 1.28 1.30 1.34 1.32 1.30 1.25
0.38 0.37 0.35 0.39 0.31 0.28 0.35 0.34 0.28 0.21 0.20 0.34 0.44 0.51 0.53 0.54 0.55 0.53 0.57 0.63 0.69 0.79 0.81 0.77 0.78 0.79 0.84 0.87 0.88 0.91 0.98 1.03 1.07 1.05 1.08 1.12 1.11 1.09 1.11 1.17 1.22 1.25 1.31 1.37 1.39 1.43 1.47 1.51 1.57 1.61 1.66 1.76 1.85 1.89 1.91 1.92 1.95 1.97 1.97 1.96 1.86 1.81 1.77 1.74 1.69 1.67 1.69 1.72 1.79 1.80 1.75 1.73 1.75 1.69 1.63 1.57 1.48 1.42 1.37 1.34 1.31 1.30 1.32 1.33 1.30 1.27
0.38 0.36 0.38 0.36 0.36 0.35 0.30 0.27 0.18 0.19 0.32 0.38 0.44 0.49 0.59 0.58 0.60 0.56 0.52 0.60 0.70 0.75 0.79 0.77 0.82 0.86 0.88 0.89 0.94 1.01 1.05 1.10 1.12 1.14 1.15 1.20 1.22 1.18 1.17 1.20 1.25 1.30 1.34 1.40 1.40 1.44 1.48 1.53 1.57 1.64 1.69 1.79 1.87 1.92 1.95 1.94 2.01 2.00 1.97 2.00 1.90 1.81 1.78 1.74 1.69 1.69 1.77 1.77 1.77 1.78 1.80 1.79 1.76 1.76 1.78 1.69 1.56 1.48 1.44 1.41 1.37 1.33 1.39 1.42 1.43 1.42
0.40 0.40 0.37 0.32 0.37 0.25 0.28 0.25 0.23 0.33 0.31 0.36 0.37 0.41 0.46 0.41 0.47 0.45 0.38 0.48 0.63 0.73 0.78 0.78 0.83 0.87 0.90 0.93 0.98 1.02 1.09 1.11 1.02 1.03 1.18 1.22 1.23 1.28 1.27 1.28 1.30 1.36 1.40 1.44 1.48 1.47 1.54 1.60 1.64 1.71 1.77 1.83 1.87 1.86 1.90 2.00 2.03 2.01 2.00 1.95 1.90 1.85 1.82 1.80 1.74 1.69 1.70 1.73 1.82 1.86 1.86 1.85 1.82 1.81 1.80 1.77 1.72 1.68 1.65 1.58 1.52 1.48 1.51 1.47 1.47 1.45
0.44 0.34 0.38 0.29 0.31 0.31 0.26 0.25 0.26 0.25 0.21 0.27 0.37 0.48 0.55 0.59 0.60 0.61 0.53 0.45 0.66 0.75 0.83 0.82 0.81 0.87 0.90 0.95 0.98 1.03 1.08 0.96 0.85 0.93 1.13 1.21 1.26 1.25 1.31 1.32 1.37 1.42 1.43 1.43 1.48 1.54 1.56 1.63 1.71 1.76 1.83 1.84 1.83 1.89 1.96 2.00 2.02 2.04 1.99 1.97 1.94 1.89 1.85 1.84 1.80 1.81 1.80 1.80 1.84 1.90 1.93 1.92 1.91 1.89 1.88 1.85 1.75 1.70 1.73 1.76 1.76 1.73 1.74 1.63 1.59 1.58
0.44 0.42 0.41 0.33 0.29 0.31 0.29 0.25 0.25 0.22 0.25 0.33 0.38 0.48 0.57 0.62 0.63 0.68 0.50 0.40 0.61 0.71 0.83 0.85 0.83 0.88 0.90 0.90 0.95 1.02 0.93 0.79 0.84 0.94 1.14 1.23 1.26 1.30 1.25 1.32 1.35 1.38 1.42 1.40 1.44 1.49 1.54 1.59 1.69 1.79 1.77 1.78 1.79 1.88 1.97 2.03 2.05 2.00 1.99 2.00 1.98 1.94 1.89 1.87 1.88 1.89 1.88 1.89 1.92 1.95 1.96 1.97 1.96 1.94 1.92 1.89 1.84 1.81 1.79 1.81 1.83 1.87 1.91 1.87 1.84 1.82
0.40 0.39 0.37 0.33 0.30 0.31 0.30 0.27 0.25 0.29 0.27 0.36 0.47 0.55 0.62 0.68 0.67 0.55 0.31 0.35 0.61 0.73 0.81 0.84 0.83 0.85 0.89 0.93 0.98 0.96 0.88 0.77 0.82 0.98 1.21 1.27 1.30 1.34 1.28 1.26 1.28 1.33 1.37 1.44 1.50 1.58 1.61 1.66 1.65 1.66 1.70 1.72 1.76 1.87 1.95 1.97 1.98 1.97 1.96 1.96 1.98 1.96 1.92 1.91 1.91 1.93 1.97 2.00 1.99 1.98 1.96 1.97 1.97 1.96 1.93 1.90 1.89 1.88 1.86 1.91 1.92 1.90 1.89 1.92 1.93 1.90
0.38 0.38 0.37 0.31 0.32 0.33 0.31 0.30 0.32 0.31 0.39 0.47 0.54 0.63 0.66 0.72 0.59 0.36 0.28 0.41 0.67 0.75 0.81 0.84 0.84 0.88 0.91 0.91 0.97 0.88 1.01 1.05 1.10 1.18 1.26 1.31 1.29 1.30 1.33 1.37 1.37 1.40 1.40 1.44 1.50 1.59 1.62 1.64 1.65 1.64 1.70 1.75 1.78 1.83 1.87 1.89 1.90 1.86 1.93 1.97 1.93 1.86 1.91 1.93 1.93 1.91 1.96 2.00 1.98 1.95 1.93 1.95 1.96 1.95 1.97 1.98 1.96 1.98 1.98 2.01 2.02 2.01 1.96 1.90 1.92 1.91
0.38 0.39 0.40 0.38 0.33 0.31 0.33 0.29 0.30 0.33 0.44 0.59 0.66 0.67 0.73 0.55 0.36 0.34 0.52 0.72 0.74 0.77 0.83 0.84 0.82 0.89 0.93 0.92 0.98 1.03 1.13 1.21 1.24 1.24 1.23 1.26 1.25 1.28 1.32 1.36 1.40 1.43 1.47 1.50 1.51 1.56 1.61 1.62 1.65 1.65 1.70 1.71 1.78 1.76 1.77 1.77 1.77 1.77 1.82 1.80 1.82 1.88 1.94 1.93 1.95 1.97 1.99 1.98 1.94 1.91 1.90 1.92 1.96 1.99 1.98 2.02 2.06 2.04 2.03 2.06 2.07 2.08 2.05 2.00 1.95 1.92
0.39 0.36 0.35 0.36 0.41 0.41 0.39 0.34 0.33 0.27 0.53 0.66 0.71 0.67 0.75 0.45 0.48 0.64 0.72 0.77 0.82 0.80 0.78 0.81 0.82 0.86 0.92 0.92 1.02 1.11 1.18 1.22 1.22 1.21 1.23 1.25 1.24 1.25 1.29 1.34 1.36 1.36 1.36 1.39 1.44 1.51 1.54 1.59 1.63 1.71 1.69 1.73 1.78 1.78 1.76 1.75 1.71 1.68 1.68 1.65 1.71 1.85 1.89 1.90 1.89 1.90 1.90 1.88 1.86 1.87 1.91 1.97 2.01 2.03 2.06 2.05 2.06 2.03 2.02 2.09 2.08 2.08 2.10 2.05 2.00 1.99
0.47 0.36 0.37 0.40 0.45 0.36 0.37 0.33 0.33 0.41 0.55 0.69 0.61 0.46 0.57 0.60 0.68 0.70 0.70 0.63 0.77 0.78 0.74 0.74 0.78 0.83 0.91 0.94 0.99 1.09 1.18 1.21 1.23 1.23 1.23 1.25 1.25 1.29 1.34 1.36 1.36 1.36 1.38 1.43 1.48 1.52 1.52 1.47 1.61 1.68 1.74 1.79 1.78 1.77 1.75 1.73 1.69 1.69 1.70 1.70 1.79 1.77 1.78 1.81 1.85 1.87 1.85 1.85 1.84 1.84 1.87 1.92 1.97 2.03 2.07 2.08 2.09 2.09 2.06 2.04 2.04 2.05 2.04 2.03 2.03 1.98
0.48 0.41 0.44 0.38 0.48 0.41 0.40 0.44 0.54 0.61 0.66 0.71 0.67 0.63 0.67 0.72 0.75 0.76 0.74 0.71 0.69 0.76 0.83 0.76 0.76 0.83 0.91 0.98 1.04 1.09 1.13 1.22 1.23 1.25 1.21 1.23 1.23 1.24 1.28 1.32 1.32 1.31 1.33 1.36 1.42 1.52 1.55 1.50 1.55 1.68 1.72 1.73 1.73 1.72 1.74 1.74 1.68 1.64 1.61 1.70 1.83 1.83 1.79 1.82 1.83 1.83 1.83 1.84 1.85 1.88 1.92 1.94 1.95 1.98 2.01 2.03 2.01 2.00 2.04 2.03 2.06 2.02 2.03 1.98 1.93 1.90
0.56 0.55 0.60 0.51 0.48 0.58 0.62 0.62 0.67 0.67 0.69 0.71 0.76 0.78 0.73 0.74 0.78 0.79 0.78 0.73 0.79 0.82 0.85 0.80 0.85 0.88 0.93 1.03 1.02 1.08 1.14 1.22 1.23 1.23 1.23 1.24 1.25 1.27 1.30 1.32 1.32 1.33 1.35 1.40 1.43 1.49 1.52 1.52 1.61 1.64 1.65 1.73 1.73 1.74 1.73 1.73 1.72 1.66 1.66 1.74 1.78 1.83 1.82 1.76 1.72 1.72 1.68 1.71 1.76 1.82 1.87 1.89 1.89 1.92 1.94 1.95 1.96 1.98 2.04 1.99 1.95 1.94 1.95 1.91 1.88 1.87
0.58 0.61 0.58 0.48 0.58 0.48 0.44 0.64 0.63 0.63 0.69 0.70 0.72 0.77 0.79 0.78 0.77 0.79 0.79 0.79 0.80 0.85 0.86 0.90 0.90 0.93 0.97 1.01 1.03 1.07 1.13 1.20 1.21 1.22 1.24 1.24 1.25 1.27 1.26 1.26 1.28 1.31 1.34 1.38 1.44 1.47 1.47 1.49 1.50 1.55 1.61 1.64 1.72 1.78 1.80 1.76 1.76 1.76 1.77 1.76 1.73 1.74 1.74 1.69 1.67 1.63 1.62 1.66 1.67 1.71 1.72 1.68 1.67 1.77 1.85 2.00 2.02 2.08 2.03 1.93 1.94 1.93 1.90 1.88 1.85 1.83
0.52 0.69 0.56 0.54 0.54 0.46 0.47 0.58 0.65 0.70 0.71 0.73 0.71 0.68 0.69 0.72 0.75 0.78 0.79 0.84 0.86 0.90 0.90 0.92 0.96 0.96 1.03 0.99 1.04 1.07 1.11 1.19 1.19 1.18 1.20 1.22 1.25 1.29 1.29 1.27 1.28 1.29 1.35 1.41 1.42 1.43 1.40 1.44 1.45 1.49 1.56 1.62 1.67 1.71 1.72 1.75 1.74 1.75 1.77 1.77 1.78 1.74 1.71 1.64 1.60 1.57 1.56 1.57 1.59 1.59 1.60 1.60 1.63 1.64 1.65 1.67 1.67 1.66 1.70 1.79 1.77 1.73 1.74 1.73 1.72 1.68
0.63 0.68 0.51 0.59 0.52 0.58 0.65 0.68 0.70 0.71 0.68 0.69 0.73 0.74 0.74 0.74 0.74 0.76 0.79 0.80 0.84 0.84 0.89 0.95 1.02 1.03 1.04 1.03 1.05 1.07 1.08 1.14 1.20 1.20 1.19 1.20 1.21 1.26 1.31 1.32 1.32 1.30 1.31 1.33 1.36 1.38 1.35 1.34 1.37 1.44 1.52 1.59 1.66 1.67 1.67 1.69 1.72 1.81 1.77 1.77 1.77 1.77 1.70 1.66 1.61 1.56 1.55 1.55 1.55 1.54 1.58 1.61 1.63 1.61 1.58 1.58 1.59 1.60 1.61 1.65 1.67 1.72 1.73 1.77 1.77 1.73
0.63 0.54 0.65 0.58 0.49 0.49 0.50 0.56 0.64 0.50 0.50 0.58 0.63 0.68 0.72 0.78 0.78 0.77 0.78 0.77 0.81 0.83 0.89 0.91 0.99 1.11 1.11 1.09 1.06 1.07 1.06 1.09 1.15 1.19 1.19 1.21 1.22 1.26 1.32 1.35 1.34 1.30 1.29 1.32 1.34 1.35 1.35 1.35 1.34 1.37 1.42 1.51 1.56 1.61 1.61 1.66 1.71 1.72 1.79 1.81 1.81 1.78 1.68 1.63 1.59 1.53 1.51 1.51 1.50 1.50 1.51 1.55 1.57 1.57 1.57 1.57 1.59 1.62 1.68 1.72 1.72 1.73 1.71 1.68 1.72 1.72
0.58 0.59 0.59 0.50 0.47 0.48 0.58 0.64 0.68 0.63 0.60 0.63 0.67 0.71 0.75 0.80 0.80 0.76 0.74 0.74 0.81 0.88 0.93 0.95 0.97 1.03 1.06 1.08 1.11 1.07 1.08 1.09 1.11 1.17 1.16 1.20 1.23 1.29 1.33 1.31 1.28 1.27 1.26 1.27 1.26 1.29 1.31 1.33 1.36 1.35 1.37 1.40 1.47 1.49 1.52 1.54 1.62 1.64 1.69 1.73 1.79 1.77 1.73 1.66 1.59 1.54 1.50 1.49 1.47 1.47 1.47 1.48 1.48 1.49 1.49 1.49 1.52 1.55 1.56 1.59 1.65 1.68 1.69 1.67 1.66 1.66
Wind_Speed
6 7 8 9 10 12 13 14 14 13 9 7 7 7 7 7 7 8 8 8 7 7 8 9 8 10 11 11 10 9 8 10 14 17 17 15 14 14 15 14 13 12 10 9 8 8 7 6 6 5 4 4 4 4 4 4 5 6 7 8 8 9 10 10 11 11 12 13 15 16 17 17 18 18 18 18 18 18 17 16 15 15 15 15 14 13
5 6 9 10 10 11 12 13 13 13 11 9 8 8 8 8 8 9 8 8 8 7 9 8 8 10 10 9 9 6 3 8 14 18 16 15 14 14 15 14 13 11 10 9 8 7 7 6 6 5 5 5 5 5 5 5 6 7 8 9 9 10 10 11 11 11 13 14 16 16 17 18 18 18 18 18 18 17 16 15 15 14 14 15 14 13
5 7 10 10 9 9 9 10 11 12 12 10 9 9 10 10 9 9 9 9 8 8 9 8 7 9 9 8 7 5 1 4 14 19 17 15 13 14 16 15 13 12 11 10 9 7 7 7 7 6 5 6 6 6 6 6 7 8 9 9 10 10 10 11 12 13 14 16 16 17 17 18 18 18 18 18 17 16 15 15 14 14 14 14 14 13
5 8 10 9 7 8 8 9 9 10 11 11 10 10 11 11 10 10 10 9 8 8 8 7 6 8 7 6 5 4 2 5 13 18 16 14 13 14 15 15 14 13 12 11 9 7 7 7 8 7 7 7 6 6 6 6 7 9 9 10 10 11 11 12 13 14 15 16 17 17 17 18 17 18 17 17 16 15 14 14 14 14 14 14 13 13
6 8 7 7 7 7 7 8 9 9 10 10 10 11 12 11 10 10 10 9 9 9 7 5 6 7 5 3 2 2 1 5 12 15 14 13 13 13 14 15 14 14 13 11 9 8 8 8 8 8 8 7 7 7 7 7 8 9 10 10 11 11 12 12 13 14 15 16 17 17 17 17 17 17 17 16 15 14 14 13 14 14 14 14 13 13
7 7 6 6 7 6 7 8 9 10 9 9 10 12 12 10 10 10 9 8 8 8 7 5 4 6 5 3 2 1 2 5 9 12 12 12 13 13 13 14 14 14 14 11 9 9 9 9 9 9 9 8 8 8 8 8 9 10 11 11 12 12 13 13 14 14 15 16 16 17 17 17 17 16 16 15 14 14 13 13 14 14 14 13 13 13
5 5 3 5 7 5 5 7 9 8 7 8 9 10 9 8 9 9 8 7 7 8 7 5 4 5 6 5 4 4 5 6 7 9 11 11 12 13 14 14 14 14 14 11 10 9 9 9 9 10 10 9 9 8 9 9 9 10 11 12 12 13 13 13 14 14 15 15 16 16 16 16 16 15 15 14 14 13 13 13 13 13 13 13 13 13
6 5 3 4 5 5 5 6 8 7 6 7 8 6 5 5 6 7 6 7 7 8 7 6 5 5 6 6 6 5 6 8 8 9 10 11 13 14 14 15 15 15 14 12 11 10 10 10 10 10 10 10 10 9 9 10 10 11 12 12 13 13 13 13 14 14 15 15 15 15 15 15 15 14 14 14 13 13 13 13 13 13 13 13 13 13
6 6 5 5 5 6 7 8 8 6 4 7 5 3 4 4 4 4 5 6 7 6 7 7 6 5 6 6 5 6 7 8 10 11 11 12 13 14 15 15 15 15 14 13 12 12 11 11 11 11 11 11 10 10 10 10 11 11 12 13 13 14 14 14 14 15 15 15 15 14 14 14 14 14 13 13 13 13 13 13 13 13 13 13 12 12
7 7 8 7 7 8 9 8 8 7 6 6 4 2 3 2 3 4 4 6 6 5 6 8 6 5 6 6 4 5 7 8 9 10 11 13 14 15 15 15 16 15 15 14 14 13 13 12 11 12 11 11 11 11 11 11 11 12 12 13 14 14 14 14 14 14 15 14 14 14 14 14 14 13 13 13 13 13 13 13 13 13 13 12 12 12
6 7 7 7 8 9 8 6 7 8 7 7 5 3 3 3 4 4 5 4 4 5 7 7 6 5 5 5 4 4 5 6 7 8 10 12 14 16 16 16 16 15 15 15 15 14 14 13 12 12 12 12 12 11 11 11 12 12 13 14 14 15 15 15 14 14 14 14 14 14 14 14 14 13 13 13 13 13 13 13 13 13 13 12 12 12
5 4 6 7 7 7 6 5 6 7 7 7 7 6 5 5 5 5 6 5 4 6 7 6 4 5 5 6 5 5 6 6 6 8 9 11 14 16 17 17 16 16 15 15 15 15 14 14 14 13 13 13 12 12 12 12 13 13 14 14 15 15 15 15 15 14 14 14 14 14 13 13 13 13 13 13 13 13 13 13 13 13 13 12 12 12
4 4 5 6 6 6 6 5 6 7 8 8 8 7 6 5 6 6 7 6 6 8 8 6 4 6 8 8 6 7 7 7 8 9 9 10 13 15 16 17 17 16 16 15 15 15 15 15 15 14 14 13 13 13 13 13 13 14 14 15 15 16 16 16 15 15 15 14 14 14 13 13 13 13 13 13 13 13 13 13 13 13 13 12 12 12
3 4 4 4 5 6 5 5 5 6 7 7 8 8 7 6 6 7 8 7 8 8 8 7 6 6 7 7 6 6 6 7 8 10 11 11 12 14 16 17 18 18 17 16 16 16 16 16 16 15 15 14 14 14 14 14 14 14 15 15 16 16 16 16 16 16 16 15 15 14 14 13 12 12 12 12 12 12 12 12 13 13 13 12 12 12
2 3 3 3 5 5 5 6 6 5 6 7 8 7 7 8 7 8 8 8 8 7 7 6 6 7 6 6 7 7 7 6 6 7 9 10 11 13 15 16 17 18 18 17 17 17 17 17 17 17 16 15 15 15 15 15 14 15 15 16 16 16 17 17 17 17 16 16 15 15 14 13 12 12 12 12 11 11 11 12 12 12 12 12 12 12
2 3 4 4 5 4 5 6 6 4 5 7 7 5 6 8 7 7 8 8 7 7 7 7 8 8 8 8 9 8 8 6 4 5 6 7 9 11 13 14 16 17 18 18 18 18 18 18 18 18 17 16 15 15 16 16 15 15 16 16 16 17 17 18 17 17 17 16 16 15 15 14 13 13 12 12 12 11 11 12 12 12 12 12 12 12
3 4 5 4 4 4 4 5 5 5 5 6 5 6 8 8 6 6 8 8 7 7 8 8 9 10 9 9 9 8 7 6 5 5 5 6 8 10 12 14 15 17 18 19 19 19 19 19 19 19 18 17 16 16 16 16 16 16 16 16 16 17 17 18 18 18 17 17 16 16 15 14 14 14 13 13 13 12 12 11 11 11 11 11 11 11
5 5 6 4 4 6 5 5 5 5 5 4 5 7 8 8 7 7 8 8 7 8 10 8 9 10 9 9 9 8 7 7 7 7 7 6 7 8 10 11 14 16 17 19 20 19 19 20 20 20 19 19 18 17 17 17 17 17 17 17 17 17 18 18 18 18 18 18 17 17 16 15 14 14 14 14 13 13 12 12 11 11 11 11 10 10
4 5 7 7 7 8 7 5 6 7 5 5 6 7 7 7 9 9 8 9 9 9 10 10 9 10 10 11 11 9 9 9 9 8 8 7 7 8 9 10 11 14 16 18 20 20 20 20 21 21 20 20 19 18 18 17 18 18 18 17 17 18 18 18 19 18 18 18 18 17 16 16 15 15 14 14 14 13 12 12 12 11 11 11 10 10
4 4 7 8 8 8 7 6 7 9 8 7 7 7 7 8 9 9 9 9 9 9 10 10 9 10 10 11 11 12 11 10 10 9 8 9 9 9 10 10 11 12 15 17 19 20 21 21 22 22 21 21 20 19 19 18 18 18 18 18 18 18 18 19 19 19 19 19 18 18 17 17 16 15 15 15 14 14 13 13 12 12 12 11 11 11
5 5 7 8 8 7 8 8 8 9 9 8 8 8 8 8 8 9 9 9 9 9 9 9 10 11 11 11 11 13 13 11 11 10 9 9 9 9 9 10 11 11 13 16 18 20 21 21 22 23 22 22 21 20 19 19 19 19 19 19 18 18 18 19 19 19 19 19 19 19 18 18 17 16 16 15 15 14 14 13 13 13 12 12 11 11
6 6 7 8 8 8 9 10 10 10 10 9 9 9 9 9 8 8 10 11 10 10 10 10 11 12 12 11 11 12 13 12 11 11 10 10 10 9 9 9 10 11 12 14 16 19 20 21 22 22 22 21 21 21 20 20 19 19 20 19 19 19 19 19 19 19 19 19 20 20 19 19 18 17 17 17 16 15 15 14 14 13 13 12 12 12
7 6 6 7 8 9 11 12 10 10 9 8 9 10 9 10 9 8 10 11 10 10 11 10 11 13 12 11 11 11 12 12 12 11 12 11 10 10 10 10 11 12 13 13 15 17 19 20 21 21 20 20 20 20 21 21 21 20 20 20 20 20 20 19 19 19 19 19 20 20 20 20 19 19 18 18 17 17 16 15 14 14 14 13 13 12
6 6 6 7 8 9 10 10 9 9 8 9 10 10 10 10 10 10 11 11 11 11 11 11 12 13 12 11 11 11 12 12 12 11 12 12 11 10 10 10 11 12 13 14 14 16 17 19 20 22 22 22 20 19 20 21 22 21 21 21 21 20 20 20 20 19 19 19 20 20 20 20 20 20 20 19 19 18 17 16 16 15 15 14 14 13
6 6 5 6 7 7 8 9 9 10 9 9 11 11 10 10 10 11 12 11 12 13 12 12 13 14 13 11 11 11 11 12 11 11 12 13 12 11 11 11 11 11 12 14 15 15 17 19 20 22 23 24 23 23 22 21 22 22 22 22 21 21 21 21 20 20 20 19 19 20 20 21 21 21 21 20 20 19 18 17 17 16 16 15 15 14
5 5 5 5 6 7 8 9 9 9 9 9 10 10 10 9 10 11 12 11 12 13 13 13 14 15 14 13 12 12 12 12 12 12 13 13 13 12 11 11 11 11 11 13 14 15 17 18 20 21 23 25 26 26 25 24 23 23 23 23 22 22 22 21 21 21 20 20 20 20 21 21 21 21 21 21 21 20 19 19 18 18 17 16 16 15
4 5 5 5 6 7 8 9 9 8 8 9 9 10 10 9 9 10 11 12 13 13 14 15 15 15 15 14 14 13 13 13 13 13 14 14 14 13 12 12 12 11 12 12 13 14 16 17 19 20 22 25 27 28 27 26 26 25 24 24 23 23 23 22 22 22 21 21 20 20 21 21 21 22 22 22 21 21 20 20 19 19 18 18 17 16
5 6 6 5 6 8 7 9 9 7 8 8 8 8 9 9 8 9 11 13 13 12 15 16 15 15 16 16 15 16 15 15 15 15 15 15 15 14 13 13 13 12 12 12 13 14 15 16 18 19 21 23 26 28 28 27 27 26 26 25 24 23 23 23 23 23 22 22 21 20 21 21 21 22 22 22 22 22 21 21 21 20 19 19 18 18
6 7 7 6 7 9 7 8 8 7 7 7 7 8 9 8 8 10 12 13 12 12 15 15 15 16 16 16 16 17 17 17 17 16 16 16 16 15 14 14 14 13 13 13 14 14 15 16 17 18 20 21 23 26 28 28 28 28 27 26 25 24 23 23 23 23 23 22 22 21 21 21 21 21 22 22 22 22 22 22 22 21 21 20 20 19
7 7 7 6 7 9 8 8 7 6 6 7 8 9 9 9 9 10 11 11 12 13 14 14 14 16 16 16 17 17 18 19 18 18 17 17 17 16 15 14 14 13 13 13 13 14 15 15 16 16 17 19 21 24 26 28 29 28 28 27 26 25 24 24 24 24 23 23 22 21 21 21 21 22 22 22 22 22 22 22 22 22 22 21 21 20
8 8 8 6 7 10 9 7 7 6 6 8 10 9 9 9 10 10 10 10 11 13 13 12 13 15 15 15 16 17 18 19 20 20 19 18 17 16 15 14 14 13 13 13 13 14 14 15 16 16 17 18 20 22 25 27 29 29 29 28 28 27 25 25 24 24 24 23 23 22 21 21 21 22 22 22 22 23 23 22 22 22 22 22 22 21
8 8 8 7 8 10 10 7 6 6 6 8 10 10 9 9 9 9 10 10 11 11 12 12 13 14 14 14 15 16 17 19 20 21 19 18 17 16 15 14 14 13 12 12 12 13 14 15 15 15 16 17 19 21 23 26 28 29 30 29 29 28 27 26 25 25 24 24 23 23 23 22 22 22 23 23 23 23 23 23 23 23 23 23 23 22
8 8 8 8 8 10 10 8 7 6 7 9 10 9 8 8 8 8 9 10 10 10 10 12 14 14 13 13 14 15 17 18 19 19 19 18 17 16 15 14 14 13 12 11 12 12 12 13 14 15 15 16 18 20 22 24 28 30 30 30 30 29 28 27 26 25 25 24 24 24 24 24 23 23 23 24 23 23 23 23 23 23 23 23 23 23
9 8 9 9 9 10 11 9 7 7 8 9 10 9 8 8 8 8 8 9 9 9 10 11 12 12 12 13 13 14 16 17 17 17 18 18 17 16 15 14 14 13 12 11 11 11 11 12 13 14 15 16 17 19 21 23 26 29 30 31 31 30 29 28 27 26 26 25 25 25 25 24 24 23 23 24 24 24 24 24 24 24 23 23 23 23
9 9 10 10 9 10 10 8 7 9 10 10 11 10 9 9 8 8 9 9 9 9 9 9 10 11 12 12 12 13 13 14 14 15 16 16 16 16 15 14 13 13 12 11 11 11 11 11 12 13 14 15 16 18 19 21 23 26 29 30 30 30 29 28 27 26 26 26 26 26 25 25 24 24 24 24 24 25 25 25 24 24 24 23 23 23
10 11 11 11 10 10 9 7 8 10 11 11 11 10 9 8 7 8 10 10 9 8 8 9 9 10 10 11 11 10 11 11 12 13 14 14 15 15 14 14 14 13 12 11 11 10 10 11 11 12 13 14 15 16 18 19 21 24 28 30 30 30 29 29 28 27 27 26 26 26 26 25 25 25 24 25 25 25 25 25 24 24 24 24 24 24
10 11 10 10 11 10 9 9 10 11 11 11 11 10 8 8 8 8 9 10 9 8 7 7 8 9 9 9 9 9 9 9 10 12 13 13 14 15 14 14 13 13 12 11 10 10 10 10 10 10 11 13 14 15 16 18 20 22 25 28 29 29 29 28 28 28 27 27 27 26 26 25 25 25 25 25 25 25 25 25 25 25 25 24 24 24
7 9 9 9 10 9 8 8 9 9 9 10 11 10 8 8 8 7 8 10 10 7 6 6 6 7 7 7 8 8 7 8 10 11 13 13 13 14 14 13 12 12 11 10 10 10 10 10 9 8 8 10 12 13 14 17 19 20 23 25 27 28 28 28 27 27 27 27 26 26 26 26 25 25 26 26 26 26 26 26 26 26 26 26 25 24
5 7 7 8 9 9 8 8 8 8 9 10 10 10 9 8 8 7 7 10 10 7 6 5 5 6 7 7 7 7 7 8 10 11 12 13 13 12 12 12 12 11 10 11 10 10 10 9 8 7 6 7 8 10 12 14 17 19 21 23 25 26 26 26 26 26 26 26 26 26 26 26 26 26 26 27 27 27 27 27 27 27 27 27 27 26
6 7 7 8 9 9 9 9 9 9 9 9 9 9 9 8 7 6 8 10 9 7 6 6 6 7 7 7 7 7 7 8 9 10 11 12 13 12 11 10 11 10 11 10 10 9 9 9 7 6 5 4 4 6 8 11 14 17 19 20 22 23 25 25 25 25 25 25 25 25 26 25 26 26 26 27 28 28 28 28 28 28 28 28 28 27
8 8 7 7 8 8 9 9 10 10 10 9 9 9 8 7 6 7 9 10 9 8 8 8 7 8 7 7 7 8 8 8 9 9 9 11 12 12 10 10 10 10 10 9 9 8 9 8 7 6 5 3 2 2 3 6 9 12 16 18 20 21 22 23 23 24 24 24 24 25 25 25 25 26 26 27 27 28 29 29 30 30 29 29 28 28
9 9 8 7 7 7 8 8 9 10 10 9 8 8 8 7 8 9 10 10 9 9 9 9 8 8 8 8 8 9 9 8 8 8 8 10 12 12 11 10 9 9 8 8 7 7 7 7 7 6 5 4 3 2 2 3 4 6 9 13 16 19 22 22 23 23 23 23 24 25 25 25 25 26 26 26 27 27 28 30 30 31 30 30 29 28
10 9 9 9 8 7 7 7 8 9 10 8 7 8 9 9 10 10 9 9 9 9 9 9 9 8 8 8 8 8 8 8 7 7 8 9 10 11 12 11 9 8 7 7 6 6 6 6 6 6 5 5 4 3 3 3 3 4 4 5 8 12 16 19 21 22 22 22 23 24 24 25 25 25 25 26 26 27 29 30 31 31 30 30 29 28
10 9 10 11 10 8 8 8 9 9 10 9 8 8 10 10 10 10 9 9 10 10 10 10 10 9 8 8 8 8 8 8 8 7 7 8 10 11 11 10 8 7 6 5 5 5 5 5 6 6 5 5 4 4 4 4 4 4 4 4 4 5 7 10 13 16 17 18 19 20 21 22 22 22 23 23 24 24 25 26 28 30 30 30 29 27
10 10 10 10 10 10 10 10 10 10 9 9 9 10 10 10 10 9 9 9 9 10 10 9 9 9 8 8 7 7 8 8 8 7 7 8 9 11 11 10 8 7 5 4 4 4 4 4 4 4 5 5 5 4 4 4 4 4 4 3 4 5 6 6 7 8 10 11 12 14 15 16 17 17 18 18 18 18 18 18 19 22 24 25 26 26
10 10 9 9 10 10 10 10 10 9 9 9 9 9 9 9 9 9 8 8 9 9 9 9 9 9 8 8 8 7 8 8 8 8 7 8 9 10 11 10 9 8 6 4 3 3 3 3 3 2 3 4 5 5 5 5 5 5 4 4 4 5 6 6 6 6 6 7 7 8 9 11 12 12 12 12 13 13 12 12 11 12 14 17 20 21
11 10 9 9 10 9 9 9 9 8 8 8 8 9 8 8 8 8 8 8 9 9 9 9 9 8 8 9 8 7 8 8 8 8 7 7 8 9 10 10 10 9 7 5 3 2 2 3 3 3 3 3 3 5 5 6 5 5 5 5 4 4 5 5 6 6 6 6 6 6 6 6 7 7 7 7 8 8 7 6 6 6 8 10 12 14
11 9 9 9 9 9 10 10 10 9 10 9 8 8 8 8 8 8 8 8 8 8 9 9 8 8 9 9 9 8 8 8 8 8 7 7 7 8 10 10 10 10 8 6 5 3 2 2 3 4 3 2 3 4 4 5 5 6 6 6 5 5 5 5 5 5 5 6 6 6 6 6 6 6 5 5 5 5 5 4 4 3 4 5 6 7
10 9 10 9 8 9 10 10 9 9 10 10 10 9 9 9 8 8 8 8 8 8 8 8 8 9 9 9 9 8 8 8 8 8 8 7 7 8 9 10 11 11 10 8 6 4 3 3 4 5 4 3 3 4 4 4 4 5 5 5 5 5 5 5 5 5 5 5 5 5 5 5 5 5 5 4 4 4 4 3 4 4 4 4 5 6
10 10 10 9 8 10 11 10 9 8 9 10 10 10 10 9 9 8 9 9 8 8 8 8 8 9 9 10 9 8 8 8 8 8 8 8 7 8 9 9 10 11 11 10 8 6 4 4 4 5 5 4 3 3 4 4 3 3 4 4 5 6 6 6 6 5 5 4 4 4 5 5 4 4 4 4 4 4 3 3 3 3 4 5 5 5
11 11 11 10 10 11 11 11 10 9 8 9 9 9 9 9 8 8 9 9 8 8 8 7 8 8 9 10 10 9 8 8 8 8 8 8 8 8 8 9 10 11 11 11 10 8 6 5 5 5 5 5 4 4 4 4 3 3 3 4 4 5 6 6 6 5 5 4 4 4 4 4 4 3 3 3 3 4 4 4 3 3 3 3 4 4
Wind_Direction
235 238 240 236 235 232 225 222 223 223 222 222 227 236 244 252 264 266 270 277 279 284 288 289 295 307 310 309 309 290 252 226 206 189 188 192 188 188 186 184 188 187 188 192 194 197 200 198 191 186 183 175 168 164 157 150 148 149 149 148 146 147 149 151 152 153 154 155 156 158 158 157 157 157 158 158 158 159 159 160 162 163 164 166 166 166
240 236 238 233 232 230 225 223 224 224 225 228 231 240 249 250 259 265 266 277 286 286 287 293 302 311 314 317 323 315 252 212 194 181 182 189 190 189 185 184 188 188 188 189 191 195 196 195 189 183 180 174 169 165 162 156 151 152 151 150 149 149 149 150 150 151 152 153 154 155 156 155 155 155 155 156 157 158 159 162 163 164 166 167 167 167
252 237 239 236 226 221 220 220 221 225 227 232 236 241 253 255 259 267 271 281 290 287 285 292 299 306 312 321 335 341 344 182 179 176 178 187 195 192 186 186 189 187 187 189 192 195 194 193 187 184 184 179 174 167 164 159 154 154 153 153 153 152 149 148 148 148 150 150 150 151 152 153 153 154 155 156 157 158 160 162 164 165 165 166 167 168
250 240 240 234 215 209 219 219 215 225 232 234 237 242 251 253 255 265 271 281 289 284 279 284 293 301 309 328 349 360 48 143 168 176 182 193 200 195 189 190 190 188 188 189 194 196 194 195 191 189 188 183 176 170 166 161 157 157 156 156 156 153 150 149 148 147 148 149 149 149 150 152 153 155 156 157 158 159 161 162 164 165 165 166 167 168
248 248 239 223 210 207 216 219 214 221 236 242 239 240 247 248 253 262 266 275 287 285 278 283 297 296 299 324 354 6 79 146 167 181 194 203 201 198 196 195 194 193 190 190 194 196 196 197 194 191 191 187 179 174 171 165 160 159 159 158 156 154 151 149 149 148 148 150 150 150 151 153 155 156 158 160 161 162 163 164 164 165 166 167 167 168
253 254 243 224 217 210 213 225 223 219 235 251 246 240 244 245 250 258 260 269 282 280 275 276 286 287 289 285 242 218 186 171 174 186 200 203 199 200 200 197 196 196 195 195 196 197 197 198 195 192 192 190 183 178 174 169 164 162 162 160 157 155 153 151 150 149 150 151 152 153 154 156 158 159 162 164 165 165 166 166 165 166 168 168 169 170
254 257 251 222 212 206 213 228 227 218 227 249 249 241 238 237 241 244 249 259 266 266 270 266 256 274 286 270 238 216 207 204 196 196 204 204 201 202 200 198 198 198 198 200 200 198 197 196 195 192 192 192 188 181 176 172 167 166 165 164 161 159 156 154 153 153 154 155 156 157 158 160 162 163 166 168 168 169 168 168 168 168 169 170 171 173
249 263 278 231 216 212 219 230 226 212 219 247 254 240 223 224 230 235 243 253 257 262 274 267 249 265 278 266 244 220 214 223 222 215 212 210 208 205 203 202 202 201 202 203 202 199 197 197 197 194 192 193 191 184 178 174 171 170 169 168 166 163 162 160 158 158 159 160 161 162 163 164 166 167 169 170 171 171 171 171 171 171 172 173 175 176
243 249 251 235 235 231 231 234 224 213 233 256 259 238 225 226 221 233 247 252 257 268 276 269 254 258 268 269 254 224 219 230 232 227 220 214 212 210 208 208 207 207 207 207 205 201 200 201 200 198 194 192 192 187 182 178 175 173 173 172 171 169 167 166 165 164 165 165 165 165 166 168 169 170 170 172 173 173 174 174 175 176 176 177 178 180
243 237 229 225 233 235 237 239 229 227 240 245 242 234 243 249 234 243 249 249 261 271 269 267 251 246 265 270 252 223 225 235 234 229 223 219 217 216 214 213 212 212 211 211 210 205 204 205 203 201 197 194 194 191 187 183 179 176 176 176 176 175 173 172 171 170 170 170 169 169 170 170 171 172 172 174 176 177 178 179 179 180 180 180 181 182
255 244 226 223 225 224 228 240 244 238 228 227 240 245 246 263 260 255 253 253 270 270 267 269 247 234 262 265 240 225 241 249 241 234 228 222 221 220 218 216 214 214 213 212 212 209 206 206 203 202 200 197 195 194 191 187 183 181 180 179 180 180 178 177 177 176 175 175 174 174 174 174 175 175 176 177 179 181 182 183 184 183 183 183 183 184
272 258 230 233 229 221 223 243 262 255 241 238 243 241 241 262 268 265 270 272 268 261 266 275 252 229 243 253 250 254 265 264 245 236 230 223 222 220 219 218 216 215 214 212 212 209 204 203 202 202 202 200 196 195 194 192 189 186 184 183 183 184 183 182 181 181 180 180 179 179 179 180 180 180 181 181 181 182 184 185 186 186 186 187 187 188
267 243 243 248 235 226 227 243 269 269 259 247 238 237 241 258 265 266 272 271 260 259 265 267 250 236 243 250 258 262 264 263 250 239 232 225 221 218 217 218 217 216 215 213 212 209 205 203 203 203 203 202 198 198 197 195 193 191 190 188 187 188 187 186 186 186 185 185 185 185 185 185 184 184 184 184 183 184 185 186 188 188 189 190 191 192
265 252 270 262 239 238 231 233 258 260 248 236 233 234 234 240 254 259 263 268 266 265 267 261 246 247 251 249 257 267 269 273 265 247 235 227 221 218 218 218 217 216 216 215 213 210 208 206 206 205 204 203 202 201 200 199 197 195 194 193 192 192 191 190 190 190 190 190 190 190 190 189 188 186 186 186 185 186 187 187 189 191 191 192 193 193
246 258 273 252 241 254 246 232 237 241 236 236 232 230 232 233 238 247 250 253 257 260 266 262 246 242 244 243 252 262 265 276 284 258 238 231 224 219 219 218 216 216 215 214 214 212 210 209 208 207 206 205 204 202 202 202 201 199 197 196 196 195 194 194 193 193 194 194 194 194 194 193 191 189 188 188 187 187 188 188 189 191 192 193 194 193
212 242 250 250 249 255 256 246 241 244 247 244 234 230 241 236 234 247 248 242 246 255 262 258 247 245 247 253 262 265 262 270 293 279 253 242 231 220 218 218 218 219 217 214 214 213 212 210 210 209 208 206 205 204 204 204 204 202 200 199 199 198 197 197 196 196 197 197 197 197 197 195 193 193 192 191 190 189 189 189 189 190 191 192 194 195
226 239 243 259 264 252 253 255 255 252 246 248 245 242 246 240 235 248 254 255 256 257 262 258 254 259 256 254 264 272 269 267 275 278 270 258 243 228 222 220 219 221 220 217 216 215 213 211 211 211 209 207 206 206 205 206 206 205 204 202 201 200 199 199 199 199 199 199 199 200 199 197 196 196 196 194 193 192 191 191 190 190 191 193 194 195
222 236 246 252 256 256 258 256 265 264 244 247 254 248 250 252 251 251 254 265 267 261 265 263 257 260 253 248 262 275 277 271 266 266 268 266 254 239 233 228 224 222 221 220 219 217 216 213 212 211 210 209 208 208 207 207 208 208 207 205 203 201 201 201 201 201 201 201 201 201 201 200 199 199 199 197 196 196 195 194 194 194 195 195 194 195
225 239 257 255 251 266 273 260 264 276 269 257 254 255 259 256 257 260 255 257 261 262 266 268 263 257 247 248 259 267 269 268 265 263 264 266 261 250 243 237 233 227 222 221 220 218 217 215 214 212 211 211 210 210 209 209 209 209 209 209 206 204 204 203 203 203 203 203 203 204 204 203 203 201 200 200 200 200 200 200 199 198 198 198 197 197
241 243 259 260 260 271 279 266 260 270 277 276 271 272 271 257 254 260 256 251 254 258 262 268 268 259 249 249 252 255 258 259 260 261 261 261 261 255 246 241 238 233 226 223 219 218 218 217 216 214 213 213 212 211 211 210 210 211 211 210 209 207 206 205 204 205 205 206 206 206 206 206 206 204 203 203 203 204 205 204 203 202 201 201 200 201
260 256 256 265 272 271 269 265 260 262 267 272 275 276 275 270 264 261 259 257 253 253 255 260 264 261 255 250 245 247 252 252 254 257 256 258 260 258 252 245 240 236 231 226 221 218 218 218 218 216 216 215 214 212 212 212 212 212 212 212 210 209 208 207 206 206 207 208 208 208 209 209 209 208 207 207 207 209 209 209 207 205 205 205 205 205
265 263 258 268 277 270 261 262 261 259 258 259 266 269 267 268 266 261 264 263 257 254 252 251 259 262 258 253 247 245 247 248 251 252 252 256 259 260 258 251 243 238 233 229 224 220 219 219 219 218 217 217 216 214 213 214 214 213 214 214 213 211 210 209 208 207 208 209 210 211 211 211 211 211 211 211 211 212 212 212 211 209 209 210 210 210
265 268 269 272 273 267 263 263 262 261 260 262 269 269 264 265 263 256 260 262 259 259 257 253 258 261 260 256 250 248 248 247 249 251 250 253 257 260 262 258 250 242 236 231 227 223 220 218 218 219 219 219 220 218 215 214 215 215 215 216 215 214 212 211 210 209 209 210 211 212 212 213 213 214 214 214 214 214 214 214 214 213 214 214 215 216
270 272 274 276 276 274 272 272 272 273 275 277 278 274 267 267 264 254 254 258 258 257 255 256 257 258 262 261 253 250 251 249 250 252 251 253 258 261 263 262 255 247 240 234 230 227 223 220 218 219 221 222 223 224 221 218 217 217 216 216 217 216 215 214 213 211 211 211 212 213 214 214 215 215 216 217 217 217 217 217 217 217 218 218 219 220
269 269 270 275 282 286 284 282 281 282 280 278 279 278 272 268 266 261 259 262 263 257 249 250 254 256 259 261 256 252 252 251 252 253 253 255 260 262 264 265 261 253 246 238 233 231 227 225 223 222 222 223 224 226 226 223 220 219 218 218 218 218 217 215 215 213 213 213 213 214 215 216 216 217 217 218 219 219 220 220 220 221 221 222 222 223
268 272 270 267 268 271 272 273 273 275 278 279 280 282 278 271 265 262 261 261 262 260 252 249 254 258 259 259 257 253 251 252 252 252 254 256 260 262 263 264 262 256 251 244 238 234 231 230 229 226 225 226 226 226 226 224 222 220 220 219 218 218 218 217 216 215 214 214 214 215 216 216 218 218 219 220 220 221 222 223 223 224 224 225 225 226
281 282 273 259 257 261 262 265 268 270 275 278 278 280 278 274 267 261 261 261 259 260 259 254 253 257 258 257 255 252 250 250 250 251 254 256 259 261 261 261 260 256 252 249 243 238 236 235 233 232 230 230 229 227 226 224 221 220 220 221 219 218 218 217 217 217 216 216 216 217 217 217 218 219 220 221 221 222 223 224 225 226 227 227 228 229
282 280 268 255 260 264 263 269 273 273 272 270 271 277 277 274 272 265 262 261 259 262 264 259 253 254 255 253 251 249 249 249 248 249 252 255 257 259 259 260 260 257 255 253 248 244 242 239 236 235 235 234 231 228 226 225 222 219 219 221 219 218 218 218 218 218 218 218 217 218 218 219 220 220 221 222 223 223 225 226 227 228 229 229 230 231
270 269 260 256 268 271 270 274 275 273 275 272 268 274 275 271 270 269 264 260 256 259 262 258 252 252 254 252 249 249 249 250 250 249 251 254 255 256 258 260 261 261 260 258 254 251 249 247 243 240 237 235 232 228 226 224 222 220 218 219 219 218 218 219 220 220 219 219 219 220 220 220 221 221 222 223 224 225 226 227 228 229 230 231 232 233
267 266 260 263 278 282 280 276 271 269 280 283 278 274 274 271 271 272 270 263 257 259 261 259 257 257 255 251 249 249 250 251 251 249 249 252 254 256 258 259 261 263 263 261 260 258 256 252 249 246 242 237 233 229 225 223 222 220 219 218 218 219 219 220 221 222 222 222 222 223 223 223 222 222 223 224 225 226 227 228 229 230 232 233 234 234
271 269 269 274 283 286 287 285 278 272 276 285 285 280 277 279 280 279 277 270 264 265 264 261 262 263 259 254 252 252 251 250 250 248 246 249 253 256 257 258 259 261 263 263 263 262 260 256 252 248 245 240 235 231 227 224 222 220 219 218 217 219 220 220 221 222 222 222 223 224 226 226 226 225 225 225 226 227 228 229 230 231 232 233 235 235
269 271 277 279 279 282 286 286 278 279 288 290 288 282 276 279 282 280 278 273 266 264 265 265 265 264 263 260 257 256 253 250 250 248 246 248 251 254 256 256 257 259 261 263 265 264 261 258 253 250 247 243 238 233 229 226 223 221 219 218 218 219 220 220 221 222 222 222 224 225 226 227 229 229 229 228 228 228 229 231 232 232 233 234 235 235
259 263 272 271 270 277 282 277 269 283 298 291 283 280 278 282 286 288 289 281 269 262 262 264 264 264 264 262 259 258 254 251 250 248 245 245 248 251 253 253 253 255 257 259 263 265 263 259 255 251 250 247 241 236 232 228 224 221 219 218 219 219 219 220 221 221 222 224 226 226 226 226 228 230 231 232 231 231 231 232 233 234 234 235 235 236
253 257 265 265 266 273 278 277 271 278 283 278 277 279 281 283 281 284 291 288 277 272 269 267 267 266 263 259 258 257 253 249 249 247 242 240 242 247 249 248 248 251 253 256 260 262 263 263 261 256 252 248 243 237 233 229 225 221 219 218 219 219 220 220 221 222 222 225 228 228 228 228 228 229 230 232 232 232 233 233 234 235 236 236 237 237
255 260 266 265 264 268 274 278 273 267 267 274 282 282 280 279 274 278 290 291 284 281 280 274 269 264 260 259 259 258 254 249 246 243 239 236 237 242 245 244 245 249 251 254 259 262 265 267 268 263 256 250 245 239 233 228 225 221 219 218 218 218 219 220 221 223 223 225 228 229 230 231 231 230 230 230 231 232 233 234 235 236 237 238 238 239
255 260 264 262 259 262 266 262 260 265 271 280 287 284 281 282 280 284 293 292 282 278 280 278 271 265 262 262 260 259 257 251 242 236 234 233 234 236 238 240 243 245 248 253 258 262 269 274 273 268 260 251 245 240 233 227 225 221 217 216 217 218 219 221 222 224 225 226 228 229 230 231 232 232 232 232 232 232 233 234 236 237 238 238 239 240
257 258 260 260 256 257 259 256 262 275 281 280 281 280 278 277 273 275 286 290 286 277 275 278 275 268 264 261 257 257 257 251 240 233 231 231 231 231 233 236 240 242 245 251 256 260 267 276 276 271 263 252 245 241 234 227 223 219 215 214 215 216 218 221 223 225 226 228 229 230 230 231 232 233 233 234 234 234 235 236 237 238 238 239 240 241
262 257 252 252 254 253 255 262 270 278 276 272 273 277 280 275 267 266 280 291 292 282 272 275 273 266 263 257 252 254 255 247 240 235 230 229 230 230 231 234 236 240 244 249 256 260 263 270 274 273 267 256 246 241 234 224 219 215 213 213 214 215 218 221 223 225 227 228 230 230 230 231 233 234 234 234 235 236 237 237 238 238 239 239 239 240
279 270 257 251 255 254 251 258 264 263 265 269 270 277 282 274 267 274 287 290 290 283 277 282 279 267 260 250 245 248 247 241 239 236 231 228 227 226 227 230 233 239 246 249 254 257 256 262 268 266 266 264 249 239 233 223 215 212 211 211 213 216 218 221 223 225 228 229 230 231 231 233 234 235 236 236 237 238 239 240 240 240 240 240 240 240
278 280 268 252 253 254 252 257 261 261 266 271 270 276 280 272 270 283 285 282 282 280 278 284 283 271 259 248 243 242 238 235 237 236 231 226 222 220 222 227 231 238 246 249 253 252 248 253 259 254 255 265 252 236 230 224 218 214 212 213 214 216 219 221 224 226 228 230 231 231 232 234 236 237 238 239 241 242 243 243 243 241 241 241 241 242
266 272 265 250 250 253 251 256 264 266 268 269 270 273 274 273 279 279 272 275 279 277 277 282 282 273 260 244 238 239 238 237 236 235 232 226 220 217 219 225 229 234 239 244 249 247 243 245 247 244 241 238 224 216 214 214 215 215 215 216 216 217 219 222 224 227 229 231 232 233 234 235 237 238 240 243 245 246 245 245 244 242 241 241 241 242
257 261 259 252 252 255 254 259 269 272 270 266 270 276 274 272 276 272 272 279 280 273 275 281 279 274 263 248 240 238 238 238 236 233 231 226 219 216 218 223 227 230 234 237 242 245 243 242 240 235 230 221 209 194 174 175 186 199 209 215 219 222 225 227 227 228 230 232 234 234 236 237 238 240 242 245 247 247 247 246 244 243 241 240 241 241
248 250 254 252 250 255 263 267 271 274 270 264 268 278 275 270 271 271 275 283 280 273 276 279 276 273 264 254 246 239 234 233 232 231 231 225 218 215 216 218 221 225 231 236 243 245 244 242 236 226 219 217 214 206 197 190 179 172 176 190 208 220 226 228 228 228 229 232 234 236 237 239 240 241 244 246 248 250 250 248 246 243 242 241 240 241
248 246 251 252 250 252 258 261 263 268 269 266 266 271 271 270 273 273 274 278 278 276 277 277 274 270 262 253 245 235 229 228 227 229 229 223 216 212 210 212 214 218 226 239 247 249 244 239 234 221 208 204 201 197 201 200 186 173 170 173 181 195 207 214 218 220 224 228 232 235 237 238 240 242 244 246 249 251 251 251 249 245 242 241 240 239
250 247 247 250 251 252 254 259 265 271 272 269 268 269 270 272 275 274 275 277 277 275 276 276 271 266 258 248 239 232 227 223 221 223 224 220 215 211 208 211 213 212 219 229 240 249 243 225 222 218 208 204 197 188 188 186 173 164 163 169 175 176 177 181 187 197 208 217 224 228 230 230 233 236 238 240 245 248 249 252 250 244 239 238 236 235
257 252 252 252 254 257 260 263 268 273 274 272 271 271 272 274 275 276 278 281 278 276 277 275 269 261 251 242 235 229 224 219 215 216 217 215 213 211 209 211 212 211 214 215 223 241 234 209 199 199 197 201 197 187 186 187 180 170 164 160 161 163 165 168 171 176 183 192 201 209 215 218 220 221 225 232 238 240 244 249 246 236 231 230 231 232
258 253 256 256 251 253 260 263 265 269 272 274 275 275 276 280 281 280 280 281 281 280 279 274 266 256 245 237 230 222 218 215 210 210 210 208 209 211 211 211 211 211 211 208 208 228 229 210 201 183 165 175 186 188 193 198 195 189 181 175 171 170 169 168 167 166 166 165 167 170 173 178 180 182 192 210 216 219 228 237 233 225 221 221 223 227
250 247 254 254 247 246 253 259 264 269 271 272 272 273 277 282 285 286 286 285 285 285 282 275 262 248 238 232 226 217 213 212 209 206 204 203 205 209 210 209 208 208 206 201 200 207 200 182 184 179 167 162 174 183 191 197 198 196 187 178 176 176 173 168 164 161 159 157 157 159 158 158 162 168 177 188 196 203 215 224 219 205 197 200 203 207
243 244 248 247 248 254 258 259 264 273 276 272 268 268 272 278 282 286 289 289 287 287 284 274 259 244 232 224 220 214 208 209 209 206 203 202 204 206 206 204 205 206 204 199 195 194 177 154 160 166 163 156 159 170 174 174 181 187 183 179 180 179 173 169 169 170 169 167 168 173 175 178 187 195 200 205 212 219 224 226 223 208 194 193 196 197
241 245 246 245 248 255 256 252 252 264 272 271 269 270 271 273 277 280 283 286 287 286 281 268 253 240 228 219 215 210 206 206 208 207 204 202 203 204 203 201 202 204 205 202 200 197 182 160 154 157 159 160 162 167 167 164 169 177 176 176 178 178 177 178 178 181 183 182 182 186 190 194 200 207 214 221 228 228 222 217 220 217 209 208 211 212
239 240 238 238 242 248 251 247 245 253 266 272 276 278 274 271 272 274 277 281 285 286 280 262 240 227 220 215 210 206 204 203 203 202 202 202 200 199 198 199 202 204 206 205 204 204 197 180 163 154 154 158 160 159 160 160 159 160 164 170 173 174 176 178 178 180 184 185 185 188 194 199 202 205 211 218 225 228 223 216 216 224 227 226 224 224